Location: Madrid
(40.4000°N, 3.6830°W)
Time: 15:25:40
(UTC+02:00)

ISS - Pass Details

Date: 06 March 2021
Orbit: 418 x 422 km, 51.6° (Epoch: 16 April)

Event Time Altitude Azimuth Distance (km) Brightness Sun altitude
Exits shadow 05:40:41 13° 3° (N) 1,335 -1.1 -23.5°
Maximum altitude 05:40:53 13° 7° (N) 1,332 -1.0 -23.5°
Drops below altitude 10° 05:42:32 10° 36° (NE) 1,499 -0.3 -23.2°
Sets 05:45:33 0° 66° (ENE) 2,363 1.5 -22.6°
